EW9411 Weather Reports


Display with metric or nautical units.
time (UTC)temp
F
wind
direction
speed
MPH
gust
MPH
rain 1hr
in
rain 24hr
in
rain mn
in
humidity
%
barometer
mb
20260905172911 78 25 4.0 6.0 0.00 0.00 0.00 61 1009.4
20260905172631 79 23 2.0 6.0 0.00 0.00 0.00 62 1009.4
20260905172415 79 23 3.0 6.0 0.00 0.00 0.00 61 1009.4
20260905172110 79 351 2.0 5.0 0.00 0.00 0.00 60 1009.4
20260905171915 79 87 2.0 5.0 0.00 0.00 0.00 60 1009.5
20260905171636 79 356 2.0 6.0 0.00 0.00 0.00 61 1009.5
20260905171420 79 60 1.0 6.0 0.00 0.00 0.00 62 1009.5
20260905171120 79 60 2.0 10.0 0.00 0.00 0.00 60 1009.5
20260905170906 79 58 4.0 10.0 0.00 0.00 0.00 61 1009.6
20260905170619 79 21 5.0 10.0 0.00 0.00 0.00 61 1009.5
20260905170403 79 42 4.0 11.0 0.00 0.00 0.00 63 1009.5
20260905170145 79 56 4.0 11.0 0.00 0.00 0.00 60 1009.6
20260905165909 79 62 3.0 11.0 0.00 0.00 0.00 62 1009.6
20260905165604 79 25 5.0 11.0 0.00 0.00 0.00 63 1009.7
20260905165409 79 40 2.0 8.0 0.00 0.00 0.00 61 1009.6
20260905165131 79 48 3.0 8.0 0.00 0.00 0.00 63 1009.6
20260905164907 79 46 3.0 8.0 0.00 0.00 0.00 63 1009.6
20260905164627 78 28 1.0 9.0 0.00 0.00 0.00 63 1009.6
20260905164411 78 28 3.0 9.0 0.00 0.00 0.00 65 1009.7
20260905164106 78 61 4.0 9.0 0.00 0.00 0.00 63 1009.7
20260905163917 78 346 3.0 8.0 0.00 0.00 0.00 63 1009.7
20260905163611 78 356 1.0 6.0 0.00 0.00 0.00 65 1009.8
20260905163416 78 356 1.0 6.0 0.00 0.00 0.00 65 1009.8
20260905163109 78 346 3.0 6.0 0.00 0.00 0.00 63 1009.8
20260905162914 78 4 2.0 7.0 0.00 0.00 0.00 63 1009.8
20260905162609 78 47 3.0 5.0 0.00 0.00 0.00 63 1009.8
20260905162419 78 52 3.0 5.0 0.00 0.00 0.00 65 1009.8
20260905162113 78 20 1.0 5.0 0.00 0.00 0.00 65 1009.7
20260905161918 78 20 3.0 6.0 0.00 0.00 0.00 63 1009.8
20260905161612 78 24 2.0 10.0 0.00 0.00 0.00 62 1009.7
20260905161423 78 39 2.0 10.0 0.00 0.00 0.00 64 1009.8
20260905161118 78 15 4.0 10.0 0.00 0.00 0.00 64 1009.7
20260905160922 78 13 2.0 10.0 0.00 0.00 0.00 65 1009.6
20260905160615 77 351 2.0 10.0 0.00 0.00 0.00 66 1009.7
20260905160420 77 6 4.0 10.0 0.00 0.00 0.00 66 1009.8
20260905160121 76 48 4.0 10.0 0.00 0.00 0.00 65 1009.8
20260905155908 76 4 3.0 10.0 0.00 0.00 0.00 65 1009.7
20260905155620 76 6 4.0 10.0 0.00 0.00 0.00 65 1009.7
20260905155404 76 7 4.0 9.0 0.00 0.00 0.00 67 1009.7
20260905155118 76 356 4.0 6.0 0.00 0.00 0.00 66 1009.7
20260905154929 76 351 2.0 5.0 0.00 0.00 0.00 68 1009.7
20260905154623 75 346 2.0 6.0 0.00 0.00 0.00 70 1009.8
20260905154407 75 4 1.0 6.0 0.00 0.00 0.00 69 1009.7
20260905154122 75 4 4.0 6.0 0.00 0.00 0.00 68 1009.7
20260905153927 75 13 3.0 6.0 0.00 0.00 0.00 69 1009.7
20260905153627 75 42 4.0 11.0 0.00 0.00 0.00 68 1009.7
20260905153427 75 42 4.0 11.0 0.00 0.00 0.00 68 1009.7
20260905153110 75 45 4.0 11.0 0.00 0.00 0.00 68 1009.8
20260905152911 75 360 6.0 11.0 0.00 0.00 0.00 67 1009.9
20260905152610 75 346 4.0 10.0 0.00 0.00 0.00 70 1009.8
20260905152411 75 16 5.0 10.0 0.00 0.00 0.00 69 1009.8
20260905152108 75 42 2.0 8.0 0.00 0.00 0.00 70 1009.8
20260905151936 75 44 3.0 9.0 0.00 0.00 0.00 69 1009.8
20260905151613 75 10 3.0 9.0 0.00 0.00 0.00 70 1009.8
20260905151440 75 2 3.0 9.0 0.00 0.00 0.00 70 1009.8
20260905151117 75 8 4.0 10.0 0.00 0.00 0.00 71 1009.8
20260905150944 74 65 2.0 10.0 0.00 0.00 0.00 71 1009.7
20260905150622 74 5 3.0 10.0 0.00 0.00 0.00 70 1009.8
20260905150423 74 18 4.0 10.0 0.00 0.00 0.00 70 1009.8
20260905150121 74 8 5.0 9.0 0.00 0.00 0.00 70 1009.8
20260905145921 74 10 3.0 8.0 0.00 0.00 0.00 71 1009.8
20260905145626 74 2 3.0 10.0 0.00 0.00 0.00 71 1009.8
20260905145427 75 4 3.0 10.0 0.00 0.00 0.00 72 1009.9
20260905145150 74 3 1.0 10.0 0.00 0.00 0.00 72 1009.8
20260905144910 74 15 4.0 10.0 0.00 0.01 0.00 71 1009.9
20260905144608 74 21 4.0 8.0 0.00 0.01 0.00 71 1009.9
20260905144409 74 356 4.0 9.0 0.00 0.01 0.00 72 1010.0
20260905144135 74 12 3.0 9.0 0.00 0.01 0.00 72 1009.9
20260905143915 74 50 5.0 9.0 0.00 0.01 0.00 71 1009.9
20260905143612 74 331 4.0 9.0 0.00 0.01 0.00 72 1009.9
20260905143413 74 54 3.0 9.0 0.00 0.01 0.00 71 1009.8
20260905143138 74 27 4.0 10.0 0.00 0.01 0.00 71 1009.8
20260905142918 74 26 4.0 10.0 0.00 0.01 0.00 72 1009.7
20260905142616 74 58 4.0 10.0 0.00 0.01 0.00 72 1009.7
20260905142417 74 42 5.0 13.0 0.00 0.01 0.00 71 1009.7
20260905142115 74 18 5.0 13.0 0.00 0.01 0.00 71 1009.7
20260905141922 74 2 5.0 13.0 0.00 0.01 0.00 70 1009.7
20260905141621 74 11 9.0 13.0 0.00 0.01 0.00 68 1009.7
20260905141422 75 16 5.0 11.0 0.00 0.01 0.00 71 1009.6
20260905141119 75 29 4.0 11.0 0.00 0.01 0.00 72 1009.6
20260905140926 74 360 3.0 11.0 0.00 0.01 0.00 71 1009.7
20260905140648 74 15 6.0 11.0 0.00 0.01 0.00 70 1009.7
20260905140405 74 356 3.0 5.0 0.00 0.01 0.00 73 1009.6
20260905140105 74 3 3.0 8.0 0.00 0.01 0.00 73 1009.5
20260905135930 74 31 3.0 10.0 0.00 0.01 0.00 73 1009.5
20260905135629 74 17 2.0 11.0 0.00 0.01 0.00 73 1009.5
20260905135434 74 308 4.0 11.0 0.00 0.01 0.00 73 1009.5
20260905135128 73 2 7.0 11.0 0.00 0.01 0.00 73 1009.5
20260905134918 73 360 4.0 10.0 0.00 0.01 0.00 73 1009.5
20260905134612 73 342 5.0 10.0 0.00 0.01 0.00 73 1009.5
20260905134416 73 7 5.0 10.0 0.00 0.01 0.00 74 1009.5
20260905134111 73 346 2.0 11.0 0.00 0.01 0.00 75 1009.4
20260905133924 72 339 4.0 13.0 0.00 0.01 0.00 75 1009.4
20260905133616 73 13 6.0 13.0 0.00 0.01 0.00 75 1009.5
20260905133442 73 18 6.0 13.0 0.00 0.01 0.00 75 1009.5
20260905133116 73 356 6.0 12.0 0.00 0.01 0.00 74 1009.5
20260905132926 73 8 6.0 10.0 0.00 0.01 0.00 74 1009.5
20260905132619 73 351 2.0 10.0 0.00 0.01 0.00 76 1009.6
20260905132424 72 334 3.0 10.0 0.00 0.01 0.00 75 1009.6
20260905132117 72 346 3.0 9.0 0.00 0.01 0.00 75 1009.6
20260905131922 72 8 4.0 9.0 0.00 0.01 0.00 75 1009.7
20260905131623 72 12 2.0 9.0 0.00 0.01 0.00 76 1009.6
20260905131408 72 17 2.0 9.0 0.00 0.01 0.00 76 1009.6
20260905131122 72 12 4.0 9.0 0.00 0.01 0.00 76 1009.7
20260905130907 72 13 4.0 9.0 0.00 0.01 0.00 76 1009.7
20260905130628 72 7 3.0 8.0 0.00 0.01 0.00 76 1009.7
20260905130406 72 4 4.0 9.0 0.00 0.01 0.00 76 1009.7
20260905130105 72 13 3.0 9.0 0.00 0.01 0.00 78 1009.8
20260905125910 71 13 2.0 9.0 0.00 0.01 0.00 78 1009.8
20260905125605 71 10 5.0 9.0 0.00 0.01 0.00 78 1009.9
20260905125409 71 356 5.0 9.0 0.00 0.01 0.00 77 1009.9
20260905125128 71 360 4.0 8.0 0.00 0.01 0.00 77 1010.0
20260905124912 71 360 4.0 6.0 0.00 0.01 0.00 78 1010.0
20260905124606 71 2 3.0 8.0 0.00 0.01 0.00 78 1010.0
20260905124411 71 1 2.0 8.0 0.00 0.01 0.00 79 1010.0
20260905124106 71 346 4.0 9.0 0.00 0.01 0.00 78 1010.1
20260905123911 71 356 3.0 9.0 0.00 0.01 0.00 79 1010.1
20260905123605 71 17 5.0 9.0 0.00 0.01 0.00 78 1010.1
20260905123415 71 360 3.0 8.0 0.00 0.01 0.00 79 1010.1
20260905123110 71 5 2.0 5.0 0.00 0.01 0.00 79 1010.1
20260905122915 71 5 2.0 5.0 0.00 0.01 0.00 79 1010.1
20260905122609 70 356 2.0 4.0 0.00 0.01 0.00 79 1010.1
20260905122414 70 356 3.0 4.0 0.00 0.01 0.00 79 1010.2
20260905122135 70 360 1.0 4.0 0.00 0.01 0.00 80 1010.3
20260905121919 70 360 2.0 4.0 0.00 0.01 0.00 80 1010.3
20260905121619 70 2 1.0 9.0 0.00 0.01 0.00 81 1010.2
20260905121424 70 2 1.0 9.0 0.00 0.01 0.00 81 1010.2
20260905121115 70 2 2.0 9.0 0.00 0.01 0.00 80 1010.1
20260905120920 70 20 2.0 9.0 0.00 0.01 0.00 81 1010.1
20260905120615 70 8 3.0 6.0 0.00 0.01 0.00 81 1010.1
20260905120425 69 6 2.0 6.0 0.00 0.01 0.00 81 1010.1
20260905120119 69 6 4.0 6.0 0.00 0.01 0.00 81 1010.1
20260905115904 69 23 3.0 7.0 0.00 0.01 0.00 82 1010.2
20260905115639 69 346 1.0 7.0 0.00 0.01 0.00 82 1010.1
20260905115403 69 346 3.0 7.0 0.00 0.01 0.00 82 1010.1
20260905115105 69 356 2.0 6.0 0.00 0.01 0.00 82 1010.0
20260905114908 68 1 1.0 8.0 0.00 0.01 0.00 83 1010.0
20260905114622 68 1 2.0 11.0 0.00 0.01 0.00 82 1010.0
20260905114407 68 3 4.0 11.0 0.00 0.01 0.00 82 1010.0
20260905114126 68 360 2.0 11.0 0.00 0.01 0.00 82 1010.0
20260905113911 68 24 4.0 9.0 0.00 0.01 0.00 82 1010.0
20260905113604 68 317 5.0 9.0 0.00 0.01 0.00 82 1010.0
20260905113409 68 10 2.0 8.0 0.00 0.01 0.00 82 1009.9
20260905113124 68 1 3.0 8.0 0.00 0.01 0.00 82 1009.9
20260905112909 68 11 3.0 8.0 0.00 0.01 0.00 83 1009.9
20260905112608 68 4 2.0 5.0 0.00 0.01 0.00 83 1009.8
20260905112408 67 7 2.0 6.0 0.00 0.01 0.00 83 1009.7
20260905112107 67 346 1.0 8.0 0.00 0.01 0.00 83 1009.7
20260905111908 67 346 2.0 9.0 0.00 0.01 0.00 83 1009.7
20260905111612 67 324 3.0 9.0 0.00 0.01 0.00 83 1009.6
20260905111413 67 2 4.0 9.0 0.00 0.01 0.00 83 1009.5
20260905111111 67 4 1.0 6.0 0.00 0.01 0.00 84 1009.5
20260905110939 67 360 1.0 8.0 0.00 0.01 0.00 85 1009.5
20260905110616 66 1 1.0 9.0 0.00 0.01 0.00 84 1009.4
20260905110416 66 17 2.0 9.0 0.00 0.01 0.00 85 1009.4
20260905110115 66 356 4.0 9.0 0.00 0.01 0.00 85 1009.4
20260905105922 66 346 5.0 9.0 0.00 0.01 0.00 85 1009.3
20260905105618 66 15 4.0 9.0 0.00 0.01 0.00 85 1009.2
20260905105419 66 3 3.0 5.0 0.00 0.01 0.00 85 1009.2
20260905105117 66 14 2.0 4.0 0.00 0.01 0.00 84 1009.1
20260905104918 66 15 3.0 4.0 0.00 0.01 0.00 84 1009.1
20260905104616 66 33 2.0 4.0 0.00 0.01 0.00 84 1009.1
20260905104423 66 33 2.0 4.0 0.00 0.01 0.00 84 1009.0
20260905104122 67 33 2.0 4.0 0.00 0.01 0.00 83 1009.0
20260905103943 67 33 1.0 4.0 0.00 0.01 0.00 84 1009.1
20260905103626 67 33 1.0 4.0 0.00 0.01 0.00 84 1009.1
20260905103427 67 33 2.0 4.0 0.00 0.01 0.00 84 1009.1
20260905103105 66 35 2.0 4.0 0.00 0.01 0.00 83 1009.2
20260905102906 66 36 2.0 4.0 0.00 0.01 0.00 83 1009.2
20260905102605 66 38 1.0 4.0 0.00 0.01 0.00 84 1009.1
20260905102405 66 38 1.0 3.0 0.00 0.01 0.00 84 1009.2
20260905102103 66 38 1.0 3.0 0.00 0.01 0.00 84 1009.2
20260905101910 66 38 1.0 3.0 0.00 0.01 0.00 84 1009.2
20260905101629 67 38 1.0 3.0 0.00 0.01 0.00 83 1009.0
20260905101415 67 38 1.0 3.0 0.00 0.01 0.00 83 1009.0
20260905101114 67 38 1.0 3.0 0.00 0.01 0.00 83 1009.0
20260905100915 67 38 0.0 3.0 0.00 0.01 0.00 84 1009.0
20260905100614 67 38 1.0 3.0 0.00 0.01 0.00 84 1009.0
20260905100414 67 38 1.0 3.0 0.00 0.01 0.00 84 1009.0
20260905100120 67 41 1.0 2.0 0.00 0.01 0.00 83 1008.9
20260905095919 67 41 1.0 3.0 0.00 0.01 0.00 83 1008.9
20260905095618 67 41 1.0 4.0 0.00 0.01 0.00 83 1008.9
20260905095419 67 41 1.0 4.0 0.00 0.01 0.00 83 1008.9
20260905095115 67 41 1.0 4.0 0.00 0.01 0.00 83 1008.9
20260905094916 67 42 2.0 4.0 0.00 0.01 0.00 83 1008.9
20260905094621 67 1 1.0 3.0 0.00 0.01 0.00 83 1008.9
20260905094422 67 1 1.0 3.0 0.00 0.01 0.00 82 1008.9
20260905094120 67 1 2.0 3.0 0.00 0.01 0.00 82 1008.9
20260905093922 67 1 2.0 3.0 0.00 0.01 0.00 82 1008.9
20260905093620 67 360 1.0 3.0 0.00 0.01 0.00 82 1008.9
20260905093426 67 360 1.0 3.0 0.00 0.01 0.00 81 1008.8
20260905093107 67 360 2.0 3.0 0.00 0.01 0.00 81 1008.9
20260905092907 67 360 1.0 2.0 0.00 0.01 0.00 81 1008.9
20260905092604 68 360 0.0 1.0 0.00 0.01 0.00 80 1008.8
20260905092405 68 360 0.0 1.0 0.00 0.01 0.00 80 1008.8
20260905092124 68 360 0.0 1.0 0.00 0.01 0.00 80 1008.9
20260905091923 68 360 0.0 1.0 0.00 0.01 0.00 80 1008.8
20260905091620 68 360 0.0 2.0 0.00 0.01 0.00 79 1008.8
20260905091420 68 360 0.0 2.0 0.00 0.01 0.00 79 1008.8
20260905091124 68 360 1.0 4.0 0.00 0.01 0.00 79 1008.9
20260905090925 68 360 0.0 4.0 0.00 0.01 0.00 79 1008.9
20260905090604 69 360 2.0 4.0 0.00 0.01 0.00 78 1008.8
20260905090405 69 360 0.0 3.0 0.00 0.01 0.00 78 1008.9
20260905090122 69 356 0.0 2.0 0.00 0.01 0.00 78 1008.8
20260905085930 69 356 0.0 2.0 0.00 0.01 0.00 78 1008.8
20260905085607 69 356 1.0 2.0 0.00 0.01 0.00 77 1008.8
20260905085429 69 356 0.0 2.0 0.00 0.01 0.00 77 1008.8
20260905085112 69 356 1.0 4.0 0.00 0.01 0.00 77 1008.8
20260905084913 69 356 0.0 4.0 0.00 0.01 0.00 77 1008.8
20260905084610 69 356 2.0 4.0 0.00 0.01 0.00 77 1008.8
20260905084411 70 356 1.0 3.0 0.00 0.01 0.00 76 1008.8
20260905084106 70 356 0.0 3.0 0.00 0.01 0.00 76 1008.8
20260905083913 70 356 1.0 3.0 0.00 0.01 0.00 76 1008.8
20260905083611 70 356 1.0 3.0 0.00 0.01 0.00 76 1008.8
20260905083410 70 356 1.0 3.0 0.00 0.01 0.00 76 1008.8
20260905083109 70 356 1.0 4.0 0.00 0.01 0.00 75 1008.9
20260905082910 70 356 2.0 4.0 0.00 0.01 0.00 75 1008.8
20260905082608 70 360 2.0 4.0 0.00 0.01 0.00 75 1008.8
20260905082435 70 360 1.0 4.0 0.00 0.01 0.00 74 1008.8
20260905082112 71 2 1.0 6.0 0.00 0.01 0.00 74 1008.8
20260905081912 71 1 2.0 6.0 0.00 0.01 0.00 74 1008.8
20260905081616 71 2 2.0 10.0 0.00 0.01 0.00 74 1008.8
20260905081417 71 2 2.0 10.0 0.00 0.01 0.00 74 1008.8
20260905081143 71 6 3.0 10.0 0.00 0.01 0.00 74 1008.8
20260905080923 71 2 2.0 10.0 0.00 0.01 0.00 74 1008.8
20260905080620 71 8 3.0 8.0 0.00 0.01 0.00 74 1008.8
20260905080420 71 3 4.0 8.0 0.00 0.01 0.00 74 1008.8
20260905080146 71 27 3.0 8.0 0.00 0.01 0.00 74 1008.8
20260905075906 71 5 3.0 8.0 0.00 0.01 0.00 74 1008.9
20260905075604 71 2 2.0 9.0 0.00 0.01 0.00 74 1008.8
20260905075405 71 356 3.0 9.0 0.00 0.01 0.00 74 1008.8
20260905075123 71 360 3.0 9.0 0.00 0.01 0.00 74 1008.8
20260905074904 71 10 3.0 9.0 0.00 0.01 0.00 74 1008.8
20260905074628 71 1 1.0 4.0 0.00 0.01 0.00 74 1008.8
20260905074408 71 1 2.0 4.0 0.00 0.01 0.00 74 1008.8
20260905074107 71 12 1.0 3.0 0.00 0.01 0.00 75 1008.9
20260905073907 71 12 0.0 6.0 0.00 0.01 0.00 74 1008.9
20260905073605 71 12 1.0 6.0 0.00 0.01 0.00 74 1008.9
20260905073406 71 12 1.0 6.0 0.00 0.01 0.00 74 1008.9
20260905073110 71 1 2.0 6.0 0.00 0.01 0.00 74 1008.9
20260905072911 71 356 1.0 2.0 0.00 0.01 0.00 74 1008.9
20260905072609 71 356 1.0 2.0 0.00 0.01 0.00 73 1008.8
20260905072410 71 356 0.0 2.0 0.00 0.01 0.00 73 1008.9
20260905072136 71 356 0.0 5.0 0.00 0.01 0.00 73 1008.9
20260905071916 71 356 0.0 5.0 0.00 0.01 0.00 72 1008.9
20260905071641 71 356 2.0 5.0 0.00 0.01 0.00 72 1008.8
20260905071421 72 356 1.0 4.0 0.00 0.01 0.00 72 1008.9
20260905071119 72 356 2.0 4.0 0.00 0.01 0.00 72 1008.8
20260905070920 72 1 2.0 5.0 0.00 0.01 0.00 72 1008.9
20260905070617 72 1 1.0 6.0 0.00 0.01 0.00 72 1008.8
20260905070425 71 1 2.0 6.0 0.00 0.01 0.00 72 1008.8
20260905070123 71 4 2.0 6.0 0.00 0.01 0.00 72 1008.8
20260905065923 71 4 3.0 6.0 0.00 0.01 0.00 72 1008.8
20260905065621 71 8 2.0 5.0 0.00 0.01 0.00 73 1008.8
20260905065422 72 8 2.0 5.0 0.00 0.01 0.00 73 1008.9
20260905065128 72 356 1.0 5.0 0.00 0.01 0.00 73 1008.8
20260905064907 72 356 1.0 5.0 0.00 0.01 0.00 73 1008.9
20260905064405 72 2 2.0 8.0 0.00 0.01 0.00 73 1008.8
20260905064125 72 11 2.0 8.0 0.00 0.01 0.00 73 1008.9
20260905063930 72 356 2.0 8.0 0.00 0.01 0.00 73 1008.9
20260905063604 72 9 2.0 5.0 0.00 0.01 0.00 74 1008.9
20260905063435 71 360 2.0 4.0 0.00 0.01 0.00 75 1008.9
20260905063107 71 2 1.0 4.0 0.00 0.01 0.00 75 1009.0
20260905062912 71 2 3.0 4.0 0.00 0.01 0.00 75 1009.0
20260905062606 71 356 0.0 2.0 0.00 0.01 0.00 76 1009.0
20260905062419 71 356 0.0 2.0 0.00 0.01 0.00 76 1009.1
20260905062134 71 356 0.0 1.0 0.00 0.01 0.00 76 1009.1
20260905061918 71 356 0.0 1.0 0.00 0.01 0.00 76 1009.1
20260905061618 71 356 0.0 0.0 0.00 0.01 0.00 77 1009.1
20260905061423 71 356 0.0 0.0 0.00 0.01 0.00 78 1009.1
20260905061118 71 356 0.0 0.0 0.00 0.01 0.00 77 1009.1
20260905060923 71 356 0.0 0.0 0.00 0.01 0.00 77 1009.2
20260905060616 71 356 0.0 0.0 0.00 0.01 0.00 78 1009.1
20260905060427 71 356 0.0 0.0 0.00 0.01 0.00 77 1009.2
20260905060122 72 356 0.0 0.0 0.00 0.01 0.00 77 1009.2
20260905055906 72 356 0.0 0.0 0.00 0.01 0.00 76 1009.2
20260905055620 72 356 0.0 1.0 0.00 0.01 0.00 76 1009.1
20260905055405 72 356 0.0 1.0 0.00 0.01 0.00 76 1009.2
20260905055127 72 356 0.0 1.0 0.00 0.01 0.00 75 1009.2
20260905054932 72 356 0.0 1.0 0.00 0.01 0.00 75 1009.2
20260905054605 72 356 0.0 1.0 0.00 0.01 0.00 76 1009.2
20260905054410 72 356 0.0 2.0 0.00 0.01 0.00 76 1009.2
20260905054104 72 356 0.0 2.0 0.00 0.01 0.00 77 1009.3
20260905053915 72 356 0.0 3.0 0.00 0.01 0.00 77 1009.3
20260905053610 72 356 0.0 3.0 0.00 0.01 0.00 77 1009.3
20260905053414 72 356 1.0 3.0 0.00 0.01 0.00 76 1009.4
20260905053108 72 356 1.0 2.0 0.00 0.01 0.00 77 1009.4
20260905052912 72 356 0.0 1.0 0.00 0.01 0.00 78 1009.4
20260905052607 72 356 0.0 4.0 0.00 0.01 0.00 77 1009.4
20260905052417 72 356 0.0 4.0 0.00 0.01 0.00 77 1009.5
20260905052112 72 356 0.0 4.0 0.00 0.01 0.00 76 1009.6
20260905051937 72 356 1.0 4.0 0.00 0.01 0.00 76 1009.6
20260905051616 72 356 1.0 2.0 0.00 0.01 0.00 77 1009.7
20260905051421 72 356 1.0 2.0 0.00 0.01 0.00 77 1009.6
20260905051143 72 356 1.0 2.0 0.00 0.01 0.00 78 1009.6
20260905050925 72 356 0.0 2.0 0.00 0.01 0.00 79 1009.6
20260905050619 72 356 0.0 2.0 0.00 0.01 0.00 80 1009.6
20260905050404 72 356 0.0 2.0 0.00 0.01 0.00 80 1009.6
20260905050146 72 356 0.0 1.0 0.00 0.01 0.00 80 1009.7
20260905045910 72 356 0.0 1.0 0.00 0.01 0.00 80 1009.7
20260905045622 72 356 0.0 1.0 0.00 0.01 0.00 80 1009.7
20260905045406 72 356 0.0 2.0 0.00 0.01 0.00 80 1009.7
20260905045121 72 356 0.0 2.0 0.00 0.01 0.00 80 1009.7
20260905044906 72 356 0.0 2.0 0.00 0.01 0.00 80 1009.7
20260905044608 72 356 1.0 2.0 0.00 0.01 0.00 80 1009.8
20260905044411 72 356 1.0 2.0 0.00 0.01 0.00 80 1009.8
20260905044126 72 356 0.0 2.0 0.00 0.01 0.00 80 1009.8
20260905043906 72 356 0.0 1.0 0.00 0.01 0.00 80 1009.8
20260905043610 72 356 0.0 1.0 0.00 0.01 0.00 80 1009.8
20260905043408 72 356 0.0 2.0 0.00 0.01 0.00 80 1009.8
20260905043107 72 356 1.0 2.0 0.00 0.01 0.00 80 1009.9
20260905042907 72 356 0.0 3.0 0.00 0.01 0.00 80 1009.9
20260905042606 72 356 1.0 3.0 0.00 0.01 0.00 80 1009.8
20260905042434 72 356 1.0 3.0 0.00 0.01 0.00 81 1009.8
20260905042111 72 356 2.0 3.0 0.00 0.01 0.00 80 1009.8
20260905041911 72 356 1.0 2.0 0.00 0.01 0.00 79 1009.9
20260905041616 72 356 0.0 2.0 0.00 0.01 0.00 79 1009.9
20260905041416 73 356 1.0 2.0 0.00 0.01 0.00 79 1009.9
20260905041113 73 356 0.0 1.0 0.00 0.01 0.00 79 1009.9
20260905040913 73 356 0.0 1.0 0.00 0.01 0.00 79 1010.0
20260905040617 73 356 0.0 1.0 0.00 0.01 0.00 79 1010.0
20260905040439 73 356 0.0 1.0 0.00 0.01 0.00 78 1010.0
20260905040116 73 356 0.0 1.0 0.00 0.01 0.00 78 1009.9
20260905035917 73 356 0.0 1.0 0.00 0.01 0.00 78 1010.0
20260905035642 73 356 0.0 2.0 0.00 0.01 0.00 78 1010.0
20260905035422 73 356 0.0 2.0 0.00 0.01 0.00 77 1010.0
20260905035120 73 356 0.0 2.0 0.00 0.01 0.00 77 1010.0
20260905034928 73 356 1.0 2.0 0.00 0.01 0.01 77 1010.0
20260905034626 74 356 1.0 3.0 0.00 0.01 0.01 76 1009.9
20260905034405 74 356 1.0 3.0 0.00 0.01 0.01 76 1009.9
20260905034129 74 356 1.0 3.0 0.00 0.01 0.01 76 1010.0
20260905033929 73 356 1.0 3.0 0.00 0.01 0.01 76 1010.0
20260905033628 73 356 1.0 3.0 0.00 0.01 0.01 76 1009.9
20260905033407 73 356 1.0 3.0 0.00 0.01 0.01 76 1010.0
20260905033106 73 356 2.0 4.0 0.00 0.01 0.01 76 1009.9
20260905032913 73 356 2.0 4.0 0.00 0.01 0.01 76 1009.9
20260905032632 74 356 2.0 4.0 0.00 0.01 0.01 76 1009.9
20260905032411 74 356 2.0 4.0 0.00 0.01 0.01 76 1009.8
20260905032118 74 351 1.0 3.0 0.00 0.01 0.01 75 1009.8
20260905031917 74 351 1.0 3.0 0.00 0.01 0.01 76 1009.8
20260905031614 74 351 2.0 3.0 0.00 0.01 0.01 77 1009.8
20260905031442 74 351 1.0 3.0 0.00 0.01 0.01 77 1009.8
20260905031119 73 351 2.0 6.0 0.00 0.01 0.01 76 1009.8
20260905030920 74 351 0.0 6.0 0.00 0.01 0.01 76 1009.8
20260905030618 74 346 1.0 6.0 0.00 0.01 0.01 75 1009.8
20260905030419 74 346 2.0 6.0 0.00 0.01 0.01 75 1009.8
20260905030123 74 356 2.0 5.0 0.00 0.01 0.01 75 1009.7
20260905025924 74 8 2.0 4.0 0.00 0.01 0.01 75 1009.8
20260905025623 74 8 2.0 4.0 0.00 0.01 0.01 76 1009.8
20260905025404 73 8 1.0 6.0 0.00 0.01 0.01 76 1009.8
20260905025149 73 10 1.0 6.0 0.00 0.01 0.01 76 1009.8
20260905024909 73 10 1.0 6.0 0.00 0.01 0.01 76 1009.8
20260905024629 73 26 1.0 5.0 0.00 0.01 0.01 76 1009.8
20260905024408 74 27 1.0 5.0 0.00 0.01 0.01 76 1009.9
20260905024114 74 27 1.0 5.0 0.00 0.01 0.01 76 1009.8
20260905023914 73 10 2.0 5.0 0.00 0.01 0.01 76 1009.8
20260905023628 73 14 2.0 5.0 0.00 0.01 0.01 77 1009.8
20260905023439 73 25 1.0 5.0 0.00 0.01 0.01 78 1009.8
20260905023133 73 29 1.0 5.0 0.00 0.01 0.01 78 1009.8
20260905022923 72 271 0.0 4.0 0.00 0.01 0.01 78 1009.8
20260905022638 72 271 0.0 4.0 0.00 0.01 0.01 79 1009.9
20260905022422 72 270 1.0 4.0 0.00 0.01 0.01 79 1010.0
20260905022117 72 289 0.0 4.0 0.00 0.01 0.01 81 1009.9
20260905021928 72 289 0.0 4.0 0.00 0.01 0.01 82 1009.9
20260905021643 72 289 1.0 4.0 0.00 0.01 0.01 83 1009.9
20260905021407 72 289 0.0 1.0 0.00 0.01 0.01 84 1009.9
20260905021127 72 289 0.0 2.0 0.00 0.01 0.01 84 1009.9
20260905020912 72 289 0.0 2.0 0.00 0.01 0.01 84 1009.8
20260905020607 72 289 0.0 2.0 0.00 0.01 0.01 84 1009.8
20260905020411 72 289 0.0 2.0 0.00 0.01 0.01 84 1009.8
20260905020106 72 289 0.0 2.0 0.00 0.01 0.01 85 1009.9
20260905015911 71 289 0.0 2.0 0.00 0.01 0.01 84 1009.9
20260905015611 71 289 1.0 2.0 0.00 0.01 0.01 84 1010.0
20260905015415 71 289 1.0 2.0 0.00 0.01 0.01 85 1010.0
20260905015109 71 289 1.0 2.0 0.00 0.01 0.01 85 1010.0
20260905014942 71 289 0.0 1.0 0.00 0.01 0.01 85 1010.1
20260905014615 71 289 0.0 1.0 0.00 0.01 0.01 85 1010.1
20260905014420 71 289 0.0 2.0 0.00 0.01 0.01 85 1010.1
20260905014136 71 289 0.0 2.0 0.00 0.01 0.01 86 1010.1
20260905013921 71 289 1.0 2.0 0.00 0.01 0.01 86 1010.0
20260905013619 71 289 0.0 2.0 0.00 0.01 0.01 86 1010.1
20260905013404 71 289 0.0 2.0 0.00 0.01 0.01 85 1010.0
20260905013118 71 289 1.0 2.0 0.00 0.01 0.01 85 1010.0
20260905012903 71 289 0.0 2.0 0.00 0.01 0.01 85 1010.0
20260905012624 71 289 0.0 2.0 0.00 0.01 0.01 85 1010.0
20260905012410 71 289 1.0 3.0 0.00 0.01 0.01 85 1010.1
20260905012121 71 289 1.0 3.0 0.00 0.01 0.01 86 1010.0
20260905011906 71 289 1.0 3.0 0.00 0.01 0.01 86 1010.0
20260905011627 71 283 0.0 1.0 0.00 0.01 0.01 86 1010.0
20260905011405 71 283 0.0 1.0 0.00 0.01 0.01 86 1009.9
20260905011125 71 283 0.0 2.0 0.00 0.01 0.01 85 1009.9
20260905010905 71 283 0.0 2.0 0.00 0.01 0.01 86 1009.9
20260905010603 71 283 0.0 2.0 0.00 0.01 0.01 85 1009.9
20260905010410 71 283 1.0 2.0 0.00 0.01 0.01 85 1009.9
20260905010109 72 283 0.0 1.0 0.00 0.01 0.01 85 1009.8
20260905005909 72 283 1.0 2.0 0.00 0.01 0.01 85 1009.9
20260905005605 72 283 1.0 2.0 0.00 0.01 0.01 85 1010.0
20260905005406 72 283 1.0 2.0 0.00 0.01 0.01 84 1010.0
20260905005104 72 283 1.0 2.0 0.00 0.01 0.01 84 1010.0
20260905004911 72 283 0.0 1.0 0.00 0.01 0.01 84 1010.0
20260905004609 73 283 0.0 1.0 0.00 0.01 0.01 83 1010.1
20260905004409 73 283 0.0 1.0 0.00 0.01 0.01 83 1010.0
20260905004107 73 283 0.0 1.0 0.00 0.01 0.01 82 1009.9
20260905003915 73 283 0.0 1.0 0.00 0.01 0.01 82 1009.9
20260905003610 73 283 0.0 1.0 0.00 0.01 0.01 82 1009.9
20260905003411 73 283 0.0 1.0 0.00 0.01 0.01 81 1009.9
20260905003110 74 283 0.0 1.0 0.00 0.01 0.01 81 1009.8
20260905002911 74 283 0.0 1.0 0.00 0.01 0.01 80 1009.8
20260905002609 74 283 0.0 2.0 0.00 0.01 0.01 80 1009.8
20260905002416 74 283 0.0 2.0 0.00 0.01 0.01 79 1009.8
20260905002115 74 283 0.0 2.0 0.00 0.01 0.01 79 1009.7
20260905001914 74 283 1.0 2.0 0.00 0.01 0.01 79 1009.7
20260905001613 75 283 0.0 1.0 0.00 0.01 0.01 79 1009.7
20260905001420 75 283 0.0 1.0 0.00 0.01 0.01 78 1009.7
20260905001119 75 283 0.0 1.0 0.00 0.01 0.01 78 1009.6
20260905000903 75 283 0.0 1.0 0.00 0.01 0.01 78 1009.7
20260905000618 75 283 0.0 1.0 0.00 0.01 0.01 78 1009.6
20260905000419 76 283 0.0 1.0 0.00 0.01 0.01 78 1009.6
20260905000123 76 283 0.0 1.0 0.00 0.01 0.01 77 1009.6
20260904235924 76 283 0.0 1.0 0.00 0.01 0.01 76 1009.6
20260904235622 76 283 0.0 1.0 0.00 0.01 0.01 76 1009.5
20260904235407 76 283 0.0 1.0 0.00 0.01 0.01 77 1009.5
20260904235121 76 283 0.0 1.0 0.00 0.01 0.01 77 1009.5
20260904234929 76 283 0.0 1.0 0.00 0.01 0.01 77 1009.5
20260904234628 76 283 0.0 1.0 0.00 0.01 0.01 76 1009.5
20260904234407 76 283 0.0 1.0 0.00 0.01 0.01 76 1009.5
20260904234105 77 283 0.0 1.0 0.00 0.01 0.01 76 1009.4
20260904233912 77 283 0.0 1.0 0.00 0.01 0.01 75 1009.4
20260904233610 77 283 0.0 1.0 0.00 0.01 0.01 75 1009.4
20260904233411 77 283 0.0 1.0 0.00 0.01 0.01 74 1009.5
20260904233109 77 283 0.0 1.0 0.00 0.01 0.01 73 1009.5
20260904232909 78 283 0.0 1.0 0.00 0.01 0.01 73 1009.4
20260904232635 78 283 0.0 1.0 0.00 0.01 0.01 72 1009.4
20260904232415 78 283 0.0 1.0 0.00 0.01 0.01 71 1009.4
20260904232113 79 283 0.0 2.0 0.00 0.01 0.01 71 1009.4
20260904231919 79 283 0.0 2.0 0.00 0.01 0.01 71 1009.4
20260904231618 79 283 0.0 2.0 0.00 0.01 0.01 70 1009.4
20260904231419 79 283 0.0 2.0 0.00 0.01 0.01 70 1009.4
20260904231117 80 283 0.0 2.0 0.00 0.01 0.01 70 1009.4
20260904230925 80 283 0.0 2.0 0.00 0.01 0.01 70 1009.4
20260904230623 80 283 0.0 2.0 0.00 0.01 0.01 69 1009.4
20260904230444 80 283 0.0 2.0 0.00 0.01 0.01 69 1009.3
20260904230120 81 283 1.0 2.0 0.00 0.01 0.01 66 1009.4
20260904225927 81 284 0.0 2.0 0.00 0.01 0.01 65 1009.4
20260904225607 81 284 0.0 2.0 0.00 0.01 0.01 64 1009.3
20260904225428 81 284 0.0 2.0 0.00 0.01 0.01 64 1009.4
20260904225105 81 284 0.0 1.0 0.00 0.01 0.01 64 1009.4
20260904224906 81 284 0.0 2.0 0.00 0.01 0.01 63 1009.4
20260904224610 82 284 0.0 2.0 0.00 0.01 0.01 63 1009.4
20260904224410 82 284 0.0 2.0 0.00 0.01 0.01 63 1009.5
20260904224109 82 284 0.0 3.0 0.00 0.01 0.01 62 1009.5
20260904223910 82 284 0.0 3.0 0.00 0.01 0.01 62 1009.5
20260904223608 82 284 1.0 3.0 0.00 0.01 0.01 62 1009.5
20260904223415 82 5 1.0 3.0 0.00 0.01 0.01 61 1009.5
20260904223114 82 5 1.0 3.0 0.00 0.01 0.01 61 1009.5
20260904222935 82 5 1.0 3.0 0.00 0.01 0.01 61 1009.5
20260904222618 82 4 1.0 3.0 0.00 0.01 0.01 61 1009.5
20260904222419 82 5 1.0 5.0 0.00 0.01 0.01 60 1009.5
20260904222118 83 5 1.0 5.0 0.00 0.01 0.01 60 1009.6
20260904221945 83 6 1.0 5.0 0.00 0.01 0.01 60 1009.6
20260904221622 83 19 1.0 5.0 0.00 0.01 0.01 61 1009.6
20260904221423 83 19 2.0 5.0 0.00 0.01 0.01 60 1009.6
20260904221122 83 6 1.0 5.0 0.00 0.01 0.01 60 1009.6
20260904220929 83 38 1.0 5.0 0.00 0.01 0.01 59 1009.6
20260904220626 83 2 1.0 5.0 0.00 0.01 0.01 59 1009.7
20260904220428 83 302 1.0 8.0 0.00 0.01 0.01 60 1009.5
20260904220134 83 351 1.0 8.0 0.00 0.01 0.01 60 1009.4
20260904215912 83 346 2.0 8.0 0.00 0.01 0.01 59 1009.4
20260904215610 83 16 2.0 6.0 0.00 0.01 0.01 60 1009.4
20260904215411 83 356 4.0 6.0 0.00 0.01 0.01 59 1009.4
20260904215109 83 2 3.0 6.0 0.00 0.01 0.01 58 1009.4
20260904214918 84 356 4.0 6.0 0.00 0.01 0.01 58 1009.3
20260904214614 84 1 1.0 6.0 0.00 0.01 0.01 59 1009.4
20260904214416 84 4 2.0 10.0 0.00 0.01 0.01 58 1009.4
20260904214114 84 8 2.0 10.0 0.00 0.01 0.01 59 1009.5
20260904213915 84 12 3.0 10.0 0.00 0.01 0.01 60 1009.4
20260904213620 84 10 3.0 10.0 0.00 0.01 0.01 58 1009.2
20260904213439 85 7 2.0 8.0 0.00 0.01 0.01 58 1009.2
20260904213116 85 356 1.0 6.0 0.00 0.01 0.01 57 1009.2
20260904212917 85 351 1.0 6.0 0.00 0.01 0.01 59 1009.2
20260904212638 85 360 3.0 9.0 0.00 0.01 0.01 59 1009.1
20260904212422 84 5 2.0 9.0 0.00 0.01 0.01 58 1009.1
20260904212117 84 22 1.0 9.0 0.00 0.01 0.01 58 1009.1
20260904211928 84 23 4.0 11.0 0.00 0.01 0.01 58 1009.0
20260904211606 85 346 2.0 11.0 0.00 0.01 0.01 59 1009.1
20260904211407 85 2 3.0 11.0 0.00 0.01 0.01 59 1009.2
20260904211105 85 4 6.0 11.0 0.00 0.01 0.01 58 1009.2
20260904210906 86 8 4.0 9.0 0.00 0.01 0.01 58 1009.1
20260904210626 85 305 2.0 10.0 0.00 0.01 0.01 58 1009.2
20260904210410 85 2 3.0 10.0 0.00 0.01 0.01 57 1009.1
20260904210125 85 346 2.0 10.0 0.00 0.01 0.01 58 1009.1
20260904205935 85 341 4.0 10.0 0.00 0.01 0.01 56 1009.2
20260904205609 86 356 5.0 8.0 0.00 0.01 0.01 56 1009.2
20260904205414 86 15 4.0 9.0 0.00 0.01 0.01 55 1009.3
20260904205107 86 11 1.0 10.0 0.00 0.01 0.01 56 1009.3
20260904204919 86 21 2.0 10.0 0.00 0.01 0.01 57 1009.3
20260904204613 86 346 4.0 13.0 0.00 0.01 0.01 56 1009.4
20260904204418 86 302 1.0 13.0 0.00 0.01 0.01 57 1009.4
20260904204112 85 13 2.0 13.0 0.00 0.01 0.01 58 1009.5
20260904203917 86 15 5.0 13.0 0.00 0.01 0.01 58 1009.5
20260904203611 86 31 2.0 12.0 0.00 0.01 0.01 56 1009.5
20260904203423 86 10 4.0 12.0 0.00 0.01 0.01 55 1009.6
20260904203117 86 356 4.0 12.0 0.00 0.01 0.01 55 1009.6
20260904202942 87 19 4.0 12.0 0.00 0.01 0.01 57 1009.6
20260904202620 87 2 6.0 11.0 0.00 0.01 0.01 54 1009.6
20260904202404 88 29 2.0 9.0 0.00 0.01 0.01 56 1009.6
20260904202117 87 50 1.0 9.0 0.00 0.01 0.01 57 1009.6
20260904201922 87 54 3.0 9.0 0.00 0.01 0.01 56 1009.6
20260904201622 87 324 0.0 6.0 0.00 0.01 0.01 57 1009.7
20260904201427 87 324 1.0 6.0 0.00 0.01 0.01 57 1009.7
20260904201122 87 3 3.0 6.0 0.00 0.01 0.01 56 1009.7
20260904200928 87 351 1.0 8.0 0.00 0.01 0.01 57 1009.7
20260904200627 87 346 2.0 8.0 0.00 0.01 0.01 57 1009.7
20260904200412 87 337 3.0 9.0 0.00 0.01 0.01 57 1009.7
20260904200106 87 328 1.0 9.0 0.00 0.01 0.01 57 1009.6
20260904195911 87 351 2.0 9.0 0.00 0.01 0.01 55 1009.6
20260904195627 87 13 2.0 6.0 0.00 0.01 0.01 55 1009.7
20260904195417 88 29 2.0 6.0 0.00 0.01 0.01 56 1009.7
20260904195111 87 346 1.0 5.0 0.00 0.01 0.01 56 1009.7
20260904194944 87 356 2.0 5.0 0.00 0.01 0.01 57 1009.7
20260904194617 86 4 2.0 5.0 0.00 0.01 0.01 57 1009.7
20260904194422 86 4 2.0 9.0 0.00 0.01 0.01 57 1009.8
20260904194116 86 351 2.0 9.0 0.00 0.01 0.01 57 1009.8
20260904193921 86 1 1.0 9.0 0.00 0.01 0.01 58 1009.7
20260904193614 86 325 2.0 5.0 0.00 0.01 0.01 57 1009.8
20260904193425 86 316 3.0 5.0 0.00 0.01 0.01 57 1009.8
20260904193119 86 289 2.0 5.0 0.00 0.01 0.01 55 1009.9
20260904192904 86 291 2.0 5.0 0.00 0.01 0.01 58 1010.0
20260904192617 86 267 2.0 5.0 0.00 0.01 0.01 57 1010.0
20260904192445 86 346 1.0 5.0 0.00 0.01 0.01 57 1009.9
20260904192122 86 356 2.0 5.0 0.00 0.01 0.01 58 1009.9
20260904191907 86 23 2.0 4.0 0.00 0.01 0.01 57 1009.9
20260904191627 86 275 2.0 6.0 0.00 0.01 0.01 58 1009.9
20260904191405 86 331 1.0 8.0 0.00 0.01 0.01 58 1009.9
20260904191106 86 356 3.0 8.0 0.00 0.01 0.01 56 1009.9
20260904190910 86 356 3.0 8.0 0.00 0.01 0.01 56 1009.9
20260904190604 86 14 2.0 9.0 0.00 0.01 0.01 58 1010.0
20260904190409 86 252 3.0 9.0 0.00 0.01 0.01 56 1010.0
20260904190129 86 243 2.0 9.0 0.00 0.01 0.01 56 1010.1
20260904185928 86 287 2.0 6.0 0.00 0.01 0.01 59 1010.1
20260904185605 85 7 1.0 9.0 0.00 0.01 0.01 59 1010.2
20260904185406 85 11 3.0 9.0 0.00 0.01 0.01 56 1010.2
20260904185105 85 307 1.0 9.0 0.00 0.01 0.01 57 1010.3
20260904184911 85 248 2.0 9.0 0.00 0.01 0.01 57 1010.3
20260904184609 85 327 3.0 9.0 0.00 0.01 0.01 56 1010.3
20260904184410 86 351 2.0 9.0 0.00 0.01 0.01 56 1010.4
20260904184108 86 254 3.0 11.0 0.00 0.01 0.01 55 1010.4
20260904183909 86 245 3.0 11.0 0.00 0.01 0.01 56 1010.4
20260904183613 86 258 2.0 11.0 0.00 0.01 0.01 56 1010.4
20260904183411 86 356 4.0 11.0 0.00 0.01 0.01 55 1010.4
20260904183109 86 297 2.0 14.0 0.00 0.01 0.01 57 1010.4
20260904182910 86 356 4.0 14.0 0.00 0.01 0.01 55 1010.4
20260904182636 86 334 3.0 14.0 0.00 0.01 0.01 58 1010.5
20260904182416 86 212 4.0 12.0 0.00 0.01 0.01 56 1010.4
20260904182114 85 8 4.0 12.0 0.00 0.01 0.01 57 1010.4
20260904181914 86 198 5.0 12.0 0.00 0.01 0.01 57 1010.5
20260904181639 86 271 3.0 11.0 0.00 0.01 0.01 57 1010.4
20260904181418 86 346 3.0 13.0 0.00 0.01 0.01 58 1010.3
20260904181115 86 27 3.0 13.0 0.00 0.01 0.01 56 1010.3
20260904180922 86 255 4.0 13.0 0.00 0.01 0.01 56 1010.3
20260904180620 86 341 5.0 11.0 0.00 0.01 0.01 54 1010.4
20260904180421 86 319 4.0 10.0 0.00 0.01 0.01 57 1010.3
20260904180118 86 17 3.0 10.0 0.00 0.01 0.01 57 1010.3
20260904175944 86 1 2.0 10.0 0.00 0.01 0.01 59 1010.3
20260904175621 86 62 4.0 10.0 0.00 0.01 0.01 55 1010.2
20260904175419 86 254 3.0 9.0 0.00 0.01 0.01 59 1010.2
20260904175116 86 3 2.0 9.0 0.00 0.01 0.01 60 1010.2
20260904174923 85 2 2.0 9.0 0.00 0.01 0.01 58 1010.2
20260904174619 86 288 2.0 9.0 0.00 0.01 0.01 58 1010.1
20260904174419 86 295 3.0 15.0 0.00 0.01 0.01 58 1010.1
20260904174118 86 52 3.0 15.0 0.00 0.01 0.01 59 1010.2
20260904173917 86 4 3.0 15.0 0.00 0.01 0.01 59 1010.3
20260904173620 85 9 4.0 15.0 0.00 0.01 0.01 61 1010.3
20260904173419 85 13 2.0 15.0 0.00 0.01 0.01 61 1010.3
20260904173118 85 356 5.0 14.0 0.00 0.01 0.01 57 1010.3